Tracking 25723 objects as of 26-Jun-2022
HD Live streaming from Space Station
objects crossing your sky now

DMSP 5D-2 F13 DEB

Track DMSP 5D-2 F13 DEB now!
10-day predictions


NORAD ID: 40474
Int'l Code: 1995-015BS
Perigee: 664.6 km
Apogee: 738.9 km
Inclination: 98.8 °
Period: 98.7 minutes
Semi major axis: 7072 km
RCS: Unknown
Launch date: March 24, 1995
Source: United States (US)
Launch site: AIR FORCE WESTERN TEST RANGE (AFWTR)

Note: This is SATELLITE DEBRIS
aabbcc
Your satellite tracking list
Your tracking list is empty




NASA's NSSDC Master Catalog

Two Line Element Set (TLE):
1 40474U 95015BS  22177.38893428  .00021199  00000-0  43739-2 0  9993
2 40474  98.8342 334.4939 0052540 270.5243  88.9934 14.59559403386934
Source of the keplerian elements: AFSPC